Terminal Aerodrome Forecast
Issued by NWS Milwaukee/Sullivan, WI

Home | Current Version | Previous Version | Text Only | Print | Product List | Glossary On
Versions: 1 2 3 4 5 6 7 8 9 10 11 12 13 14 15 16 17 18 19 20 21 22 23 24 25 26 27 28 29 30 31
000
FTUS43 KMKX 291420 AAA
TAFMKE
TAF AMD
KMKE 291420Z 2914/3018 01007KT P6SM OVC015
     FM291500 03006KT P6SM SCT015 OVC025
     FM291700 04007KT P6SM BKN040
     FM300200 04004KT P6SM SCT060
     FM301600 08012KT P6SM BKN120=

USA.gov is the U.S. government's official web portal to all federal, state and local government web resources and services.